Location: Codford Saint Peter
(51.1597°N, 2.0531°W)
Time: 23:19:32
(UTC+00:00)

CZ-4 R/B - Pass Details

Date: 18 September 2020
Orbit: 530 x 600 km, 97.7° (Epoch: 31 October)

Event Time Altitude Azimuth Distance (km) Brightness Sun altitude
Rises 18:44:50 0° 173° (S) 2,837 4.8 -5.5°
Reaches altitude 10° 18:47:01 10° 177° (S) 1,939 4.0 -5.9°
Maximum altitude 18:51:12 63° 258° (WSW) 674 2.1 -6.5°
Drops below altitude 10° 18:55:24 10° 340° (NNW) 1,942 4.6 -7.2°
Sets 18:57:35 0° 344° (NNW) 2,841 5.4 -7.5°
